Погода в Ленино

Россия / Пензенская область     53°01′59″N   44°53′32″E
темп.,
°C
ветер,
м/с
пор.,
м/с
влажн.,
%
обл.,
%
осадки,
мм/ч
давл.,
гПа
погр.,
м
8 мая, сб
сб800:00+7с4894100 0.5 1016398
03:00+6ссз379522 0.5 1017244
06:00+7ссв3596100 0.0 1016221
09:00+10в2390100 0.0 1016404
12:00+14ю346741 0.1 10141095
15:00+16ююз465722 0.1 10131292
18:00+15ю4767100 0.0 1012251
21:00+11ю387499 0.0 1012142
9 мая, вс
вс900:00+10юв4127179 0.0 1010225
03:00+12ююв71666100 0.1 1009369
06:00+11ююв51279100 0.2 1009324
09:00+15ю61073100 0.8 1009571
12:00+16ююв61078100 0.6 1009813
15:00+11зсз6691100 1.1 1011383
18:00+8сз5685100 0.1 1014431
21:00+7ссз4789100 0.1 1016431
10 мая, пн
пн1000:00+6ссз5794100 0.7 1017423
03:00+5с61194100 1.4 1018472
06:00+5с71296100 1.4 1019458
09:00+6с81394100 3.4 1021433
12:00+8ссв81390100 0.2 1021501
15:00+12ссв81281100 0.2 1021707
18:00+11ссв91685100 0.0 1021528
21:00+9св61487100 0.0 1024477
11 мая, вт
вт1100:00+9св101886100 0.0 1023486
03:00+9св61589100 0.1 1023398
06:00+10св6148984 0.1 1024482
09:00+14всв6118096 0.1 1024511
12:00+19в69637 0.0 10241158
15:00+19в7116885 2.1 1024846
18:00+18всв7137385 1.9 1024546
21:00+13юз1193100 3.1 102521
12 мая, ср
ср1200:00+14в51387100 0.0 1024393
03:00+13в31091100 0.0 1024254
06:00+14всв5138683 0.0 1024358
09:00+16в7147593 0.0 1024559
12:00+22вюв8105392 0.0 10241525
15:00+18вюв6126692 0.0 1023424
18:00+17вюв51267100 0.0 1023451
21:00+14всв367588 0.0 102384